Wind_Speed
19 21 23 25 27 30 32 34 35 37 38 39 40 40 40 40 41 41 40 39 40 40 40 40 39 38 37 36 33 31 31 33 34 34 35 35 35 34 33 31 30 29 28
18 21 23 25 27 29 31 32 34 36 38 39 40 40 41 41 42 42 41 41 41 42 42 41 40 39 38 37 34 33 31 32 34 34 34 34 34 33 32 31 30 29 28
20 23 25 26 28 30 32 34 35 36 38 40 41 41 41 41 42 42 42 41 41 42 43 42 41 40 39 37 36 35 33 32 32 32 33 34 33 33 32 32 31 30 30
22 24 26 28 30 32 34 35 35 36 38 39 40 40 40 41 41 42 42 42 42 42 41 41 40 40 39 38 37 36 35 34 32 32 34 35 34 33 32 32 32 32 31
24 26 27 29 31 33 34 36 36 37 38 39 40 41 41 41 42 42 42 41 40 40 39 39 38 38 37 37 38 38 37 36 35 34 33 34 35 36 34 32 31 32 32
26 27 28 29 31 33 34 36 37 38 39 39 40 41 41 41 41 41 40 39 38 38 38 37 36 36 36 36 36 37 38 38 39 38 35 35 35 36 36 35 33 33 33
28 29 30 31 32 34 35 36 37 38 39 40 40 41 41 41 41 40 39 39 38 38 38 37 35 35 35 36 35 36 37 38 39 41 39 38 37 36 36 35 35 35 34
29 30 31 32 34 35 36 37 37 38 39 40 41 41 41 41 40 40 39 39 39 39 40 41 40 38 38 38 38 37 37 38 39 41 42 41 40 38 37 36 36 36 36
29 31 32 34 35 37 37 38 38 39 39 40 40 41 41 41 40 40 40 40 40 41 42 43 44 44 43 43 42 42 41 41 40 41 43 44 44 41 39 38 38 37 37
30 31 33 35 36 38 39 39 40 39 39 40 40 41 41 40 40 40 41 41 42 42 43 45 46 47 48 48 47 47 46 45 45 45 44 45 46 46 44 41 39 40 40
31 32 34 35 37 39 40 41 41 41 40 41 41 41 41 40 40 40 40 41 42 44 45 47 48 50 51 52 52 52 51 50 49 49 49 49 49 50 48 45 43 42 42
31 33 35 37 39 40 41 42 42 42 42 42 42 42 41 40 40 41 41 42 43 45 48 50 51 53 54 55 56 56 55 54 54 53 53 52 52 52 52 51 48 45 44
33 35 37 39 40 42 42 43 43 43 43 44 43 42 42 41 41 41 42 44 46 48 50 52 53 55 56 58 60 61 60 59 58 57 56 56 55 55 55 54 53 51 48
35 38 40 41 42 43 43 44 44 44 44 44 44 43 42 42 42 42 44 46 48 50 51 52 53 55 57 58 60 61 61 61 60 60 59 59 58 58 57 57 56 55 53
38 40 42 43 43 44 44 45 45 45 45 45 44 43 43 42 42 43 44 47 49 50 51 52 53 54 54 55 56 57 59 59 59 59 59 59 60 61 60 59 59 58 56
39 41 43 44 44 45 45 45 46 46 46 45 44 44 43 42 42 44 45 47 49 49 50 51 51 50 50 51 52 52 53 54 55 55 57 58 60 62 62 61 61 60 59
40 42 44 45 45 46 46 46 46 46 46 45 45 44 43 42 43 44 46 47 48 49 49 48 47 46 45 45 45 46 46 47 49 50 52 55 57 60 62 63 62 61 60
42 44 45 45 46 46 46 47 47 47 46 46 45 44 43 43 43 45 46 47 47 47 46 44 42 41 39 39 38 39 40 41 43 46 48 50 53 56 59 61 62 62 61
43 44 45 46 46 46 47 47 47 47 47 46 44 44 43 43 44 45 46 46 46 44 42 40 39 37 35 33 32 32 33 34 37 41 44 45 47 50 53 57 60 61 62
43 44 44 46 46 47 47 47 48 47 46 45 44 43 43 44 44 45 45 44 43 41 39 38 36 33 30 27 26 26 26 28 31 35 39 40 42 45 48 51 55 58 60
43 43 45 46 47 48 48 48 48 47 46 45 44 43 43 44 44 44 43 43 41 39 38 36 33 29 26 23 21 20 21 23 26 30 33 37 40 42 43 46 49 52 56
42 43 44 46 48 49 48 48 48 47 46 45 43 42 43 43 43 42 41 40 38 37 36 34 30 26 23 20 16 14 15 19 23 26 29 33 36 39 40 42 44 47 50
42 43 44 46 47 49 49 49 48 47 45 44 42 42 42 42 41 40 39 38 37 36 35 32 28 23 19 15 12 10 11 14 19 24 26 29 32 34 36 38 41 43 45
42 43 43 45 47 48 49 49 48 46 45 44 42 41 41 41 39 39 39 37 35 35 33 30 25 21 17 12 9 6 9 13 18 21 23 25 27 28 30 34 36 38 40
41 42 43 45 47 48 49 49 48 46 44 43 42 40 40 40 38 37 37 36 34 33 31 28 24 19 14 10 6 5 8 12 16 19 20 22 23 24 25 27 30 33 36
41 42 43 45 47 49 49 49 48 46 44 43 41 40 39 38 37 36 36 35 33 30 28 25 22 17 12 7 2 4 8 11 14 18 19 20 21 22 23 24 26 29 32
Wind_Direction
287 286 285 285 285 285 285 285 286 287 288 289 289 289 289 289 288 287 287 286 285 285 284 284 285 285 284 285 280 270 265 259 253 251 251 251 250 249 249 249 247 246 242
291 291 290 289 288 288 288 288 289 290 290 290 290 290 290 289 288 288 287 286 285 284 283 283 282 282 282 281 276 272 268 262 257 251 249 249 249 247 247 245 245 244 242
298 298 297 296 296 295 294 294 294 294 295 294 294 293 292 291 290 289 288 287 286 284 283 283 282 281 279 277 274 271 271 266 259 253 251 248 248 247 245 243 243 243 241
308 306 305 304 303 302 301 301 300 300 299 298 298 297 296 295 294 292 291 290 288 286 285 283 282 280 278 275 272 270 268 264 258 255 253 250 247 245 244 243 241 239 237
315 313 311 310 309 308 308 307 306 305 304 303 302 301 299 298 297 296 294 293 291 289 287 285 283 281 279 275 272 270 267 263 259 257 255 249 244 244 243 240 238 235 233
322 320 318 316 314 313 312 311 310 309 308 306 305 304 302 300 299 298 296 294 293 291 290 287 285 282 280 277 273 270 266 262 259 256 254 251 246 243 242 238 235 232 231
326 325 324 323 321 319 317 315 313 312 310 308 307 305 303 301 299 297 295 294 292 291 289 288 286 283 281 279 276 271 267 263 259 255 253 252 248 242 239 237 234 230 228
328 328 327 326 324 323 321 319 317 314 312 310 308 305 303 300 297 295 293 291 289 287 287 286 284 282 280 279 277 273 269 264 261 256 252 249 247 243 240 235 232 229 226
329 328 328 328 326 325 324 321 319 316 313 310 307 305 302 299 295 292 290 288 287 286 284 283 282 280 279 278 276 273 269 265 261 257 253 249 246 245 240 236 231 229 226
329 329 329 328 327 325 323 321 319 316 313 311 308 305 302 299 295 291 288 286 286 285 284 282 281 279 278 276 274 271 268 265 261 257 254 251 245 243 240 237 233 229 226
329 329 329 328 327 325 323 322 319 317 315 312 310 307 303 300 297 294 291 289 287 286 285 283 280 278 276 274 273 270 267 263 260 257 253 250 248 244 241 238 234 231 226
330 330 330 329 328 326 324 322 321 319 317 315 312 309 305 301 298 295 294 292 291 289 287 285 282 279 276 274 271 268 266 262 259 255 252 248 246 244 241 239 236 231 227
331 331 330 330 328 327 325 324 322 321 319 317 314 311 307 303 300 297 296 295 294 293 290 288 284 281 278 275 271 267 264 261 258 254 250 246 244 242 240 237 236 233 229
332 332 332 330 329 328 326 325 323 322 321 319 317 313 310 306 303 301 300 299 298 297 295 291 287 283 279 276 272 268 264 260 256 253 249 245 241 239 237 235 234 233 230
332 332 332 331 330 329 328 326 325 324 323 321 319 316 312 309 306 305 304 304 303 301 299 295 291 286 281 277 272 267 263 259 254 250 246 242 239 237 235 233 232 231 231
332 332 332 332 332 331 330 329 327 326 325 324 322 319 316 313 311 310 310 309 308 306 303 300 295 289 284 278 273 267 262 257 252 247 243 240 237 234 233 231 230 229 230
333 334 335 335 334 333 332 331 330 329 327 326 324 322 319 317 316 315 314 314 313 310 308 303 298 294 288 282 274 268 261 256 250 245 240 238 235 232 231 230 229 228 227
336 337 337 336 336 335 334 333 332 331 330 328 327 324 323 321 320 319 319 318 317 315 312 308 303 299 293 286 278 269 261 255 247 241 237 235 232 230 229 228 227 227 225
338 338 338 338 338 337 336 335 334 333 332 330 329 327 326 325 323 323 322 322 321 319 316 312 308 304 297 289 280 270 260 251 243 237 233 231 229 227 226 226 226 225 224
336 338 338 339 340 339 339 337 336 335 334 332 331 329 328 328 327 326 326 326 325 324 322 317 313 309 302 293 283 271 259 248 238 230 226 225 223 221 221 222 223 224 223
336 338 339 340 341 341 340 339 338 336 335 334 333 332 331 331 330 330 329 330 330 329 327 324 320 314 307 300 288 272 255 240 229 222 219 218 217 216 216 218 219 221 222
337 338 339 340 341 341 341 340 339 338 337 336 335 334 334 334 334 333 333 333 333 333 332 329 325 321 313 306 293 270 247 229 218 213 212 212 210 211 211 212 214 217 219
336 337 338 340 341 341 342 341 340 340 339 338 337 337 337 337 337 337 337 336 336 337 336 334 330 325 320 311 296 267 235 214 206 204 204 204 205 207 209 209 211 214 216
336 337 338 340 341 342 342 342 342 341 340 339 339 338 339 340 340 340 340 339 339 340 340 339 336 331 325 316 299 257 220 202 195 196 197 197 199 201 204 206 209 212 214
335 336 338 340 341 342 343 343 342 342 342 340 340 340 341 342 342 342 342 342 342 344 345 346 345 340 334 323 300 240 206 193 191 191 192 192 193 194 197 200 203 206 210
333 335 337 339 341 342 342 342 343 343 342 342 341 342 343 344 345 345 344 344 345 347 349 351 353 354 353 350 330 193 189 186 185 186 186 185 186 190 192 196 200 203 205
Height
5855 5854 5852 5851 5849 5847 5844 5841 5839 5836 5832 5829 5826 5823 5820 5817 5813 5811 5809 5807 5805 5803 5802 5800 5799 5797 5795 5794 5791 5791 5791 5793 5796 5799 5802 5806 5808 5812 5815 5819 5822 5825 5828
5851 5849 5847 5845 5842 5840 5837 5834 5831 5828 5824 5820 5817 5814 5811 5808 5804 5801 5799 5798 5796 5793 5791 5790 5789 5788 5787 5786 5785 5784 5785 5786 5788 5791 5793 5797 5801 5804 5807 5811 5815 5818 5822
5847 5844 5842 5839 5835 5832 5829 5826 5823 5819 5815 5811 5807 5804 5801 5798 5794 5791 5789 5787 5785 5783 5781 5780 5779 5779 5778 5778 5777 5777 5777 5779 5781 5783 5786 5789 5792 5796 5800 5804 5807 5811 5814
5842 5839 5836 5832 5829 5825 5821 5817 5814 5811 5806 5802 5797 5794 5790 5787 5784 5781 5778 5776 5774 5772 5770 5769 5769 5768 5768 5769 5769 5769 5770 5771 5773 5775 5777 5780 5783 5788 5792 5795 5799 5802 5807
5837 5833 5830 5826 5822 5818 5813 5809 5805 5801 5797 5793 5788 5784 5780 5776 5773 5770 5767 5765 5762 5760 5759 5758 5757 5757 5757 5758 5759 5760 5761 5763 5764 5767 5769 5771 5774 5778 5783 5787 5791 5795 5799
5832 5828 5824 5820 5816 5811 5806 5801 5797 5792 5787 5783 5779 5774 5770 5766 5763 5759 5756 5754 5752 5750 5748 5747 5747 5747 5747 5747 5748 5750 5751 5753 5755 5758 5761 5763 5766 5769 5773 5778 5782 5787 5791
5827 5823 5818 5814 5809 5804 5799 5794 5789 5784 5779 5774 5769 5765 5761 5757 5753 5750 5747 5745 5743 5741 5738 5737 5737 5737 5737 5737 5738 5739 5741 5743 5745 5748 5751 5754 5757 5760 5764 5769 5774 5779 5784
5823 5818 5814 5809 5803 5798 5792 5787 5781 5776 5771 5766 5761 5756 5752 5748 5744 5741 5738 5736 5733 5731 5729 5727 5727 5726 5726 5726 5727 5728 5730 5732 5735 5737 5740 5744 5748 5751 5755 5760 5765 5771 5777
5820 5815 5809 5804 5798 5792 5786 5780 5774 5769 5764 5758 5753 5748 5743 5739 5735 5732 5729 5726 5724 5721 5719 5717 5715 5715 5714 5714 5715 5716 5718 5720 5723 5725 5729 5733 5737 5741 5746 5750 5755 5762 5768
5816 5811 5805 5799 5793 5786 5780 5774 5768 5762 5756 5750 5745 5739 5734 5729 5725 5721 5718 5716 5713 5710 5708 5706 5704 5702 5701 5701 5701 5702 5704 5707 5710 5712 5716 5720 5725 5730 5735 5740 5745 5752 5758
5812 5807 5800 5794 5787 5780 5773 5767 5760 5754 5747 5741 5735 5729 5724 5719 5714 5710 5707 5704 5701 5698 5695 5693 5690 5688 5686 5685 5685 5686 5688 5691 5694 5698 5702 5707 5711 5717 5723 5729 5735 5742 5748
5808 5802 5795 5788 5781 5774 5766 5759 5752 5745 5738 5731 5725 5718 5713 5708 5703 5699 5695 5691 5688 5685 5681 5678 5675 5672 5670 5668 5667 5668 5669 5672 5676 5681 5686 5691 5697 5703 5709 5716 5723 5730 5737
5803 5796 5789 5782 5774 5767 5759 5751 5743 5736 5728 5721 5714 5708 5702 5697 5692 5687 5683 5678 5674 5670 5665 5661 5657 5653 5650 5648 5647 5647 5649 5652 5656 5661 5667 5674 5680 5688 5695 5702 5710 5717 5725
5797 5790 5783 5775 5767 5759 5751 5743 5735 5727 5719 5712 5704 5698 5691 5685 5680 5675 5670 5665 5659 5653 5648 5642 5637 5633 5629 5626 5624 5624 5626 5629 5634 5640 5646 5654 5662 5670 5678 5687 5695 5703 5712
5791 5784 5776 5768 5760 5751 5743 5734 5725 5717 5710 5702 5694 5687 5681 5674 5668 5663 5656 5650 5643 5636 5630 5623 5617 5611 5607 5604 5602 5601 5603 5607 5612 5619 5625 5633 5642 5651 5661 5670 5680 5688 5698
5786 5778 5769 5760 5752 5743 5734 5725 5717 5709 5700 5692 5685 5677 5670 5663 5657 5650 5643 5636 5628 5620 5612 5604 5597 5591 5586 5582 5580 5580 5582 5586 5591 5598 5605 5613 5622 5631 5642 5653 5664 5674 5684
5779 5771 5762 5753 5744 5735 5726 5717 5708 5700 5692 5683 5675 5667 5660 5653 5645 5638 5630 5621 5613 5604 5595 5586 5578 5572 5567 5563 5560 5560 5562 5567 5572 5579 5586 5593 5603 5613 5625 5636 5647 5658 5669
5772 5763 5755 5746 5737 5727 5718 5709 5700 5692 5683 5675 5666 5658 5650 5643 5634 5626 5617 5608 5599 5589 5580 5571 5563 5556 5551 5546 5543 5543 5545 5549 5555 5561 5569 5577 5586 5597 5608 5619 5631 5642 5654
5765 5757 5748 5739 5730 5721 5712 5702 5693 5684 5675 5667 5658 5649 5641 5633 5624 5615 5606 5597 5587 5577 5567 5558 5550 5543 5538 5533 5530 5529 5531 5535 5540 5546 5554 5563 5572 5582 5593 5604 5617 5628 5639
5760 5752 5743 5733 5724 5715 5705 5696 5686 5677 5668 5659 5650 5641 5633 5624 5615 5606 5596 5586 5576 5566 5557 5548 5540 5533 5527 5523 5520 5518 5519 5523 5528 5534 5542 5551 5560 5568 5578 5590 5601 5613 5625
5754 5746 5737 5727 5718 5709 5699 5689 5680 5670 5661 5652 5643 5634 5625 5616 5607 5597 5587 5578 5568 5559 5549 5540 5532 5525 5519 5515 5512 5510 5511 5514 5518 5525 5532 5541 5550 5558 5568 5578 5589 5600 5612
5749 5740 5731 5722 5712 5703 5693 5684 5674 5664 5655 5646 5637 5628 5618 5609 5599 5590 5580 5571 5561 5552 5543 5534 5526 5519 5513 5509 5506 5505 5505 5507 5512 5518 5526 5533 5541 5550 5559 5569 5579 5590 5601
5743 5735 5726 5717 5707 5698 5688 5678 5668 5658 5649 5640 5631 5622 5612 5603 5593 5584 5574 5565 5556 5547 5538 5529 5521 5515 5509 5506 5503 5502 5503 5505 5509 5515 5521 5528 5536 5544 5553 5562 5571 5581 5592
5738 5730 5721 5712 5703 5693 5683 5673 5663 5653 5644 5635 5625 5616 5607 5598 5588 5579 5570 5561 5552 5544 5535 5526 5518 5512 5507 5504 5502 5501 5502 5505 5509 5514 5520 5526 5533 5540 5548 5556 5565 5574 5584
5733 5725 5716 5707 5698 5688 5678 5668 5658 5648 5639 5630 5621 5612 5603 5593 5584 5575 5566 5557 5549 5541 5532 5524 5517 5511 5507 5504 5502 5502 5503 5506 5510 5515 5520 5526 5532 5538 5545 5552 5560 5568 5577
5727 5719 5711 5702 5693 5683 5673 5663 5653 5644 5635 5626 5617 5608 5599 5590 5581 5572 5563 5554 5547 5539 5531 5524 5518 5512 5508 5505 5503 5503 5505 5508 5511 5516 5521 5526 5531 5537 5543 5550 5556 5563 5571